| time (UTC) | temp F | wind direction | speed MPH | gust MPH | rain 1hr in | rain 24hr in | rain mn in | humidity % | barometer mb |
| 20260510104552 | 39 | 112 | 2.0 | 4.0 | 0.00 | 0.00 | 0.00 | 83 | 1017.5 |
| 20260510103053 | 40 | 112 | 2.0 | 3.0 | 0.00 | 0.00 | 0.00 | 82 | 1017.6 |
| 20260510101603 | 40 | 112 | 1.0 | 4.0 | 0.00 | 0.00 | 0.00 | 81 | 1017.7 |
| 20260510094556 | 41 | 112 | 1.0 | 3.0 | 0.00 | 0.00 | 0.00 | 82 | 1017.5 |
| 20260510093056 | 41 | 0 | 0.0 | 4.0 | 0.00 | 0.00 | 0.00 | 82 | 1017.6 |
| 20260510091558 | 42 | 112 | 0.0 | 3.0 | 0.00 | 0.00 | 0.00 | 81 | 1017.8 |
| 20260510090053 | 42 | 0 | 0.0 | 1.0 | 0.00 | 0.00 | 0.00 | 81 | 1017.8 |
| 20260510084609 | 42 | 112 | 1.0 | 3.0 | 0.00 | 0.00 | 0.00 | 79 | 1017.8 |
| 20260510083057 | 43 | 112 | 3.0 | 4.0 | 0.00 | 0.00 | 0.00 | 78 | 1017.9 |
| 20260510081559 | 44 | 112 | 1.0 | 4.0 | 0.00 | 0.00 | 0.00 | 78 | 1018.0 |
| 20260510080100 | 45 | 112 | 1.0 | 4.0 | 0.00 | 0.00 | 0.00 | 77 | 1018.0 |
| 20260510074554 | 46 | 112 | 1.0 | 3.0 | 0.00 | 0.00 | 0.00 | 77 | 1017.9 |
| 20260510073059 | 46 | 112 | 2.0 | 3.0 | 0.00 | 0.00 | 0.00 | 77 | 1018.0 |
| 20260510071557 | 47 | 112 | 2.0 | 4.0 | 0.00 | 0.00 | 0.00 | 77 | 1018.0 |
| 20260510064551 | 47 | 0 | 0.0 | 0.0 | 0.00 | 0.00 | 0.00 | 78 | 1018.0 |
| 20260510063051 | 48 | 0 | 0.0 | 0.0 | 0.00 | 0.00 | 0.00 | 78 | 1017.9 |
| 20260510061551 | 48 | 0 | 0.0 | 4.0 | 0.00 | 0.00 | 0.00 | 76 | 1018.1 |
| 20260510060052 | 48 | 112 | 3.0 | 6.0 | 0.00 | 0.00 | 0.00 | 77 | 1018.1 |
| 20260510054549 | 48 | 112 | 4.0 | 8.0 | 0.00 | 0.00 | 0.00 | 74 | 1018.0 |
| 20260510053053 | 50 | 112 | 6.0 | 8.0 | 0.00 | 0.00 | 0.00 | 73 | 1018.0 |
| 20260510051605 | 51 | 112 | 3.0 | 7.0 | 0.00 | 0.00 | 0.00 | 70 | 1017.9 |
| 20260510050059 | 51 | 112 | 3.0 | 9.0 | 0.00 | 0.00 | 0.00 | 68 | 1017.8 |
| 20260510044552 | 51 | 112 | 3.0 | 7.0 | 0.00 | 0.00 | 0.00 | 67 | 1018.0 |
| 20260510043049 | 52 | 112 | 3.0 | 6.0 | 0.00 | 0.00 | 0.00 | 64 | 1018.0 |
| 20260510041551 | 53 | 112 | 4.0 | 8.0 | 0.00 | 0.00 | 0.00 | 59 | 1017.9 |
| 20260510040103 | 53 | 0 | 0.0 | 0.0 | 0.00 | 0.00 | 0.00 | 57 | 1017.7 |
| 20260510034550 | 54 | 0 | 0.0 | 3.0 | 0.00 | 0.00 | 0.00 | 53 | 1017.5 |
| 20260510033056 | 55 | 201 | 1.0 | 4.0 | 0.00 | 0.00 | 0.00 | 52 | 1017.3 |
| 20260510031550 | 56 | 0 | 0.0 | 0.0 | 0.00 | 0.00 | 0.00 | 52 | 1017.1 |
| 20260510030056 | 57 | 0 | 1.0 | 3.0 | 0.00 | 0.00 | 0.00 | 48 | 1016.8 |
| 20260510024552 | 60 | 201 | 2.0 | 4.0 | 0.00 | 0.00 | 0.00 | 45 | 1016.6 |
| 20260510023049 | 62 | 201 | 2.0 | 4.0 | 0.00 | 0.00 | 0.00 | 43 | 1016.7 |
| 20260510021641 | 63 | 0 | 1.0 | 3.0 | 0.00 | 0.00 | 0.00 | 41 | 1016.7 |
| 20260510020051 | 64 | 201 | 2.0 | 4.0 | 0.00 | 0.00 | 0.00 | 41 | 1016.8 |
| 20260510014559 | 64 | 0 | 2.0 | 5.0 | 0.00 | 0.00 | 0.00 | 40 | 1016.7 |
| 20260510013102 | 64 | 201 | 3.0 | 6.0 | 0.00 | 0.00 | 0.00 | 39 | 1016.7 |
| 20260510011559 | 65 | 202 | 0.0 | 4.0 | 0.00 | 0.00 | 0.00 | 39 | 1016.6 |
| 20260510010055 | 65 | 0 | 0.0 | 7.0 | 0.00 | 0.00 | 0.00 | 39 | 1016.7 |
| 20260510004550 | 65 | 213 | 2.0 | 6.0 | 0.00 | 0.00 | 0.00 | 39 | 1016.8 |
| 20260510003050 | 65 | 0 | 0.0 | 4.0 | 0.00 | 0.00 | 0.00 | 39 | 1016.7 |
| 20260510001551 | 65 | 0 | 0.0 | 9.0 | 0.00 | 0.00 | 0.00 | 41 | 1016.8 |
| 20260510000050 | 65 | 155 | 0.0 | 5.0 | 0.00 | 0.00 | 0.00 | 42 | 1016.8 |
| 20260509234548 | 64 | 153 | 2.0 | 7.0 | 0.00 | 0.00 | 0.00 | 42 | 1016.8 |
| 20260509233052 | 64 | 175 | 3.0 | 8.0 | 0.00 | 0.00 | 0.00 | 42 | 1016.7 |
| 20260509231550 | 64 | 168 | 5.0 | 10.0 | 0.00 | 0.00 | 0.00 | 42 | 1016.8 |
| 20260509230055 | 64 | 211 | 7.0 | 16.0 | 0.00 | 0.00 | 0.00 | 42 | 1016.9 |
| 20260509224549 | 64 | 178 | 4.0 | 14.0 | 0.00 | 0.00 | 0.00 | 40 | 1017.0 |
| 20260509223054 | 64 | 0 | 2.0 | 8.0 | 0.00 | 0.00 | 0.00 | 39 | 1016.9 |
| 20260509221550 | 65 | 218 | 4.0 | 11.0 | 0.00 | 0.00 | 0.00 | 39 | 1017.0 |
| 20260509220053 | 64 | 235 | 4.0 | 11.0 | 0.00 | 0.00 | 0.00 | 40 | 1017.0 |
| 20260509214552 | 64 | 0 | 0.0 | 9.0 | 0.00 | 0.00 | 0.00 | 40 | 1017.2 |
| 20260509213105 | 64 | 238 | 7.0 | 12.0 | 0.00 | 0.00 | 0.00 | 39 | 1017.3 |
| 20260509211601 | 64 | 281 | 5.0 | 14.0 | 0.00 | 0.00 | 0.00 | 38 | 1017.4 |
| 20260509210056 | 65 | 0 | 4.0 | 12.0 | 0.00 | 0.00 | 0.00 | 37 | 1017.3 |
| 20260509204552 | 63 | 209 | 7.0 | 14.0 | 0.00 | 0.00 | 0.00 | 40 | 1017.5 |
| 20260509203100 | 63 | 228 | 8.0 | 13.0 | 0.00 | 0.00 | 0.00 | 40 | 1017.5 |
| 20260509201550 | 63 | 205 | 1.0 | 9.0 | 0.00 | 0.00 | 0.00 | 40 | 1017.4 |
| 20260509200054 | 64 | 0 | 8.0 | 15.0 | 0.00 | 0.00 | 0.00 | 38 | 1017.3 |
| 20260509194600 | 63 | 222 | 2.0 | 11.0 | 0.00 | 0.00 | 0.00 | 40 | 1017.3 |
| 20260509193057 | 63 | 189 | 3.0 | 9.0 | 0.00 | 0.00 | 0.00 | 41 | 1017.4 |
| 20260509191606 | 62 | 232 | 5.0 | 11.0 | 0.00 | 0.00 | 0.00 | 41 | 1017.4 |
| 20260509190057 | 61 | 221 | 1.0 | 5.0 | 0.00 | 0.00 | 0.00 | 41 | 1017.4 |
| 20260509184600 | 61 | 0 | 0.0 | 5.0 | 0.00 | 0.00 | 0.00 | 40 | 1017.4 |
| 20260509183058 | 61 | 0 | 2.0 | 7.0 | 0.00 | 0.00 | 0.00 | 39 | 1017.4 |
| 20260509181555 | 61 | 0 | 0.0 | 5.0 | 0.00 | 0.00 | 0.00 | 40 | 1017.4 |
| 20260509180110 | 61 | 0 | 2.0 | 6.0 | 0.00 | 0.00 | 0.00 | 39 | 1017.1 |
| 20260509174549 | 60 | 140 | 0.0 | 7.0 | 0.00 | 0.00 | 0.00 | 40 | 1017.1 |
| 20260509173059 | 61 | 138 | 2.0 | 7.0 | 0.00 | 0.00 | 0.00 | 40 | 1017.1 |
| 20260509171552 | 60 | 0 | 1.0 | 9.0 | 0.00 | 0.00 | 0.00 | 39 | 1017.0 |
| 20260509170050 | 60 | 76 | 6.0 | 8.0 | 0.00 | 0.00 | 0.00 | 39 | 1017.0 |
| 20260509164548 | 60 | 57 | 2.0 | 5.0 | 0.00 | 0.00 | 0.00 | 42 | 1017.0 |
| 20260509163053 | 60 | 0 | 1.0 | 8.0 | 0.00 | 0.00 | 0.00 | 41 | 1017.0 |
| 20260509161559 | 60 | 103 | 1.0 | 7.0 | 0.00 | 0.00 | 0.00 | 42 | 1016.8 |
| 20260509160049 | 60 | 0 | 1.0 | 4.0 | 0.00 | 0.00 | 0.00 | 43 | 1016.6 |
| 20260509154554 | 59 | 102 | 5.0 | 9.0 | 0.00 | 0.00 | 0.00 | 44 | 1016.5 |
| 20260509153103 | 59 | 91 | 2.0 | 8.0 | 0.00 | 0.00 | 0.00 | 45 | 1016.3 |
| 20260509151550 | 59 | 100 | 3.0 | 10.0 | 0.00 | 0.00 | 0.00 | 45 | 1016.3 |
| 20260509150053 | 58 | 117 | 4.0 | 10.0 | 0.00 | 0.00 | 0.00 | 46 | 1016.0 |
| 20260509144554 | 58 | 79 | 4.0 | 6.0 | 0.00 | 0.00 | 0.00 | 45 | 1016.0 |
| 20260509143058 | 57 | 325 | 3.0 | 6.0 | 0.00 | 0.00 | 0.00 | 47 | 1015.9 |
| 20260509141552 | 56 | 23 | 2.0 | 5.0 | 0.00 | 0.00 | 0.00 | 49 | 1015.8 |
| 20260509140109 | 55 | 23 | 0.0 | 5.0 | 0.00 | 0.00 | 0.00 | 51 | 1015.8 |
| 20260509134555 | 54 | 23 | 0.0 | 3.0 | 0.00 | 0.00 | 0.00 | 55 | 1015.7 |
| 20260509133058 | 53 | 0 | 1.0 | 5.0 | 0.00 | 0.00 | 0.00 | 58 | 1015.6 |
| 20260509131556 | 52 | 0 | 0.0 | 6.0 | 0.00 | 0.00 | 0.00 | 57 | 1015.5 |
| 20260509130050 | 52 | 53 | 6.0 | 10.0 | 0.00 | 0.00 | 0.00 | 56 | 1015.3 |
| 20260509124554 | 52 | 0 | 0.0 | 8.0 | 0.00 | 0.00 | 0.00 | 59 | 1014.9 |
| 20260509123055 | 52 | 0 | 2.0 | 5.0 | 0.00 | 0.00 | 0.00 | 58 | 1014.7 |
| 20260509121555 | 51 | 0 | 0.0 | 0.0 | 0.00 | 0.00 | 0.00 | 59 | 1014.7 |
| 20260509120055 | 51 | 319 | 3.0 | 8.0 | 0.00 | 0.00 | 0.00 | 62 | 1014.5 |
| 20260509114555 | 51 | 0 | 0.0 | 3.0 | 0.00 | 0.00 | 0.00 | 62 | 1014.4 |
| 20260509113057 | 52 | 0 | 0.0 | 4.0 | 0.00 | 0.00 | 0.00 | 61 | 1014.2 |
| 20260509111558 | 52 | 0 | 3.0 | 7.0 | 0.00 | 0.00 | 0.00 | 60 | 1013.9 |
| 20260509110054 | 52 | 325 | 3.0 | 6.0 | 0.00 | 0.00 | 0.00 | 61 | 1013.8 |